Time,TemperatureF,DewpointF,PressureIn,WindDirection,WindDirectionDegrees,WindSpeedMPH,WindSpeedGustMPH,Humidity,HourlyPrecipIn,Conditions,Clouds,dailyrainin,SoftwareType,DateUTC
2014-09-18 00:00:00,58.4,52.9,30.02,NE,34,0.0,0.0,82,0.00,,---,0.00,VWS V14.01,2014-09-18 04:00:00,
2014-09-18 00:05:00,58.5,52.7,30.02,NE,34,0.0,0.0,81,0.00,,---,0.00,VWS V14.01,2014-09-18 04:05:00,
2014-09-18 00:10:00,58.5,52.0,30.02,NE,34,0.0,0.0,79,0.00,,---,0.00,VWS V14.01,2014-09-18 04:10:00,
2014-09-18 00:15:00,58.1,51.6,30.02,NNE,24,1.0,2.0,79,0.00,,---,0.00,VWS V14.01,2014-09-18 04:15:00,
2014-09-18 00:20:00,58.0,51.5,30.02,NNE,24,0.0,2.0,79,0.00,,---,0.00,VWS V14.01,2014-09-18 04:20:00,
2014-09-18 00:25:00,57.6,51.1,30.03,NNW,337,2.0,3.0,79,0.00,,---,0.00,VWS V14.01,2014-09-18 04:25:00,
2014-09-18 00:30:00,57.5,50.0,30.03,NW,320,2.0,3.0,76,0.00,,---,0.00,VWS V14.01,2014-09-18 04:30:00,
2014-09-18 00:35:00,57.7,49.5,30.03,NW,320,0.0,3.0,74,0.00,,---,0.00,VWS V14.01,2014-09-18 04:35:00,
2014-09-18 00:40:00,58.0,49.0,30.03,NW,320,0.0,3.0,72,0.00,,---,0.00,VWS V14.01,2014-09-18 04:40:00,
2014-09-18 00:45:00,58.2,49.6,30.03,NW,320,0.0,3.0,73,0.00,,---,0.00,VWS V14.01,2014-09-18 04:45:00,
2014-09-18 00:50:00,58.3,49.3,30.03,NW,320,1.0,3.0,72,0.00,,---,0.00,VWS V14.01,2014-09-18 04:50:00,
2014-09-18 00:55:00,58.2,49.2,30.03,NW,320,1.0,3.0,72,0.00,,---,0.00,VWS V14.01,2014-09-18 04:55:00,
2014-09-18 00:59:00,58.1,49.1,30.03,NW,320,0.0,3.0,72,0.00,,---,0.00,VWS V14.01,2014-09-18 04:59:00,
2014-09-18 01:04:00,57.9,48.9,30.03,NW,320,0.0,2.0,72,0.00,,---,0.00,VWS V14.01,2014-09-18 05:04:00,
2014-09-18 01:09:00,57.7,49.1,30.03,NW,320,1.0,2.0,73,0.00,,---,0.00,VWS V14.01,2014-09-18 05:09:00,
2014-09-18 01:15:00,57.5,48.9,30.03,NW,320,0.0,3.0,73,0.00,,---,0.00,VWS V14.01,2014-09-18 05:15:00,
2014-09-18 01:20:00,57.3,49.1,30.03,NW,320,2.0,3.0,74,0.00,,---,0.00,VWS V14.01,2014-09-18 05:20:00,
2014-09-18 01:25:00,57.1,48.9,30.03,NW,320,1.0,3.0,74,0.00,,---,0.00,VWS V14.01,2014-09-18 05:25:00,
2014-09-18 01:30:00,57.1,48.9,30.03,NW,320,0.0,1.0,74,0.00,,---,0.00,VWS V14.01,2014-09-18 05:30:00,
2014-09-18 01:35:00,57.0,49.2,30.03,NW,320,2.0,2.0,75,0.00,,---,0.00,VWS V14.01,2014-09-18 05:35:00,
2014-09-18 01:40:00,56.9,49.1,30.03,NW,312,1.0,4.0,75,0.00,,---,0.00,VWS V14.01,2014-09-18 05:40:00,
2014-09-18 01:45:00,56.8,49.3,30.03,NW,312,0.0,4.0,76,0.00,,---,0.00,VWS V14.01,2014-09-18 05:45:00,
2014-09-18 01:50:00,56.8,49.7,30.03,NW,314,2.0,4.0,77,0.00,,---,0.00,VWS V14.01,2014-09-18 05:50:00,
2014-09-18 01:55:00,56.8,49.7,30.03,NW,307,2.0,4.0,77,0.00,,---,0.00,VWS V14.01,2014-09-18 05:55:00,
2014-09-18 02:00:00,56.7,49.6,30.03,NW,320,1.0,2.0,77,0.00,,---,0.00,VWS V14.01,2014-09-18 06:00:00,
2014-09-18 02:05:00,56.6,49.8,30.03,WNW,303,0.0,4.0,78,0.00,,---,0.00,VWS V14.01,2014-09-18 06:05:00,
2014-09-18 02:10:00,56.5,49.7,30.03,WNW,299,1.0,4.0,78,0.00,,---,0.00,VWS V14.01,2014-09-18 06:10:00,
2014-09-18 02:15:00,56.4,49.6,30.03,NW,326,1.0,4.0,78,0.00,,---,0.00,VWS V14.01,2014-09-18 06:15:00,
2014-09-18 02:20:00,56.4,49.6,30.03,NW,324,2.0,4.0,78,0.00,,---,0.00,VWS V14.01,2014-09-18 06:20:00,
2014-09-18 02:25:00,56.3,49.9,30.03,NNW,327,1.0,4.0,79,0.00,,---,0.00,VWS V14.01,2014-09-18 06:25:00,
2014-09-18 02:31:00,56.3,49.9,30.03,NW,312,0.0,2.0,79,0.00,,---,0.00,VWS V14.01,2014-09-18 06:31:00,
2014-09-18 02:36:00,56.3,49.9,30.03,NW,318,1.0,3.0,79,0.00,,---,0.00,VWS V14.01,2014-09-18 06:36:00,
2014-09-18 02:41:00,56.2,49.4,30.03,NW,317,3.0,4.0,78,0.00,,---,0.00,VWS V14.01,2014-09-18 06:41:00,
2014-09-18 02:46:00,56.2,49.4,30.03,NW,317,0.0,4.0,78,0.00,,---,0.00,VWS V14.01,2014-09-18 06:46:00,
2014-09-18 02:51:00,56.1,49.3,30.03,NW,317,0.0,4.0,78,0.00,,---,0.00,VWS V14.01,2014-09-18 06:51:00,
2014-09-18 02:56:00,56.0,49.2,30.03,NW,322,2.0,4.0,78,0.00,,---,0.00,VWS V14.01,2014-09-18 06:56:00,
2014-09-18 03:01:00,55.9,49.2,30.03,NW,318,2.0,2.0,78,0.00,,---,0.00,VWS V14.01,2014-09-18 07:01:00,
2014-09-18 03:06:00,55.9,49.2,30.03,NW,318,0.0,2.0,78,0.00,,---,0.00,VWS V14.01,2014-09-18 07:06:00,
2014-09-18 03:11:00,55.8,49.0,30.03,NW,312,0.0,3.0,78,0.00,,---,0.00,VWS V14.01,2014-09-18 07:11:00,
2014-09-18 03:16:00,55.8,49.4,30.03,WNW,300,1.0,4.0,79,0.00,,---,0.00,VWS V14.01,2014-09-18 07:16:00,
2014-09-18 03:21:00,55.8,49.4,30.03,West,281,0.0,4.0,79,0.00,,---,0.00,VWS V14.01,2014-09-18 07:21:00,
2014-09-18 03:26:00,55.8,49.0,30.03,NW,304,2.0,4.0,78,0.00,,---,0.00,VWS V14.01,2014-09-18 07:26:00,
2014-09-18 03:31:00,55.8,49.4,30.03,NW,304,0.0,2.0,79,0.00,,---,0.00,VWS V14.01,2014-09-18 07:31:00,
2014-09-18 03:36:00,55.8,49.4,30.04,NW,305,0.0,3.0,79,0.00,,---,0.00,VWS V14.01,2014-09-18 07:36:00,
2014-09-18 03:41:00,55.7,49.3,30.03,West,273,1.0,3.0,79,0.00,,---,0.00,VWS V14.01,2014-09-18 07:41:00,
2014-09-18 03:47:00,55.7,49.3,30.03,West,274,1.0,3.0,79,0.00,,---,0.00,VWS V14.01,2014-09-18 07:47:00,
2014-09-18 03:52:00,55.6,49.2,30.03,West,279,2.0,3.0,79,0.00,,---,0.00,VWS V14.01,2014-09-18 07:52:00,
2014-09-18 03:57:00,55.6,49.2,30.04,NW,311,2.0,3.0,79,0.00,,---,0.00,VWS V14.01,2014-09-18 07:57:00,
2014-09-18 04:02:00,55.5,49.1,30.04,NW,308,0.0,3.0,79,0.00,,---,0.00,VWS V14.01,2014-09-18 08:02:00,
2014-09-18 04:07:00,55.5,49.1,30.04,WNW,291,0.0,5.0,79,0.00,,---,0.00,VWS V14.01,2014-09-18 08:07:00,
2014-09-18 04:12:00,55.4,49.0,30.04,NW,322,3.0,5.0,79,0.00,,---,0.00,VWS V14.01,2014-09-18 08:12:00,
2014-09-18 04:17:00,55.4,49.0,30.04,NW,305,0.0,5.0,79,0.00,,---,0.00,VWS V14.01,2014-09-18 08:17:00,
2014-09-18 04:22:00,55.3,49.2,30.04,NW,308,0.0,5.0,80,0.00,,---,0.00,VWS V14.01,2014-09-18 08:22:00,
2014-09-18 04:27:00,55.2,49.2,30.04,NW,307,3.0,5.0,80,0.00,,---,0.00,VWS V14.01,2014-09-18 08:27:00,
2014-09-18 04:32:00,55.1,49.0,30.04,NW,321,4.0,4.0,80,0.00,,---,0.00,VWS V14.01,2014-09-18 08:32:00,
2014-09-18 04:37:00,55.0,49.0,30.05,NW,319,0.0,4.0,80,0.00,,---,0.00,VWS V14.01,2014-09-18 08:37:00,
2014-09-18 04:42:00,54.9,49.2,30.05,West,280,0.0,4.0,81,0.00,,---,0.00,VWS V14.01,2014-09-18 08:42:00,
2014-09-18 04:47:00,54.8,49.1,30.05,West,280,2.0,4.0,81,0.00,,---,0.00,VWS V14.01,2014-09-18 08:47:00,
2014-09-18 04:52:00,54.8,49.1,30.05,West,280,1.0,4.0,81,0.00,,---,0.00,VWS V14.01,2014-09-18 08:52:00,
2014-09-18 04:57:00,54.7,49.0,30.05,West,280,1.0,4.0,81,0.00,,---,0.00,VWS V14.01,2014-09-18 08:57:00,
2014-09-18 05:03:00,54.6,48.9,30.05,WNW,303,1.0,3.0,81,0.00,,---,0.00,VWS V14.01,2014-09-18 09:03:00,
2014-09-18 05:08:00,54.6,48.9,30.05,NW,324,1.0,4.0,81,0.00,,---,0.00,VWS V14.01,2014-09-18 09:08:00,
2014-09-18 05:13:00,54.5,48.8,30.06,NW,317,2.0,4.0,81,0.00,,---,0.00,VWS V14.01,2014-09-18 09:13:00,
2014-09-18 05:18:00,54.3,48.6,30.06,NNW,335,0.0,4.0,81,0.00,,---,0.00,VWS V14.01,2014-09-18 09:18:00,
2014-09-18 05:23:00,54.2,48.8,30.06,North,4,3.0,4.0,82,0.00,,---,0.00,VWS V14.01,2014-09-18 09:23:00,
2014-09-18 05:28:00,54.1,48.7,30.06,North,354,0.0,4.0,82,0.00,,---,0.00,VWS V14.01,2014-09-18 09:28:00,
2014-09-18 05:33:00,53.9,48.5,30.06,NNW,347,2.0,4.0,82,0.00,,---,0.00,VWS V14.01,2014-09-18 09:33:00,
2014-09-18 05:38:00,53.8,48.8,30.06,NNW,328,1.0,4.0,83,0.00,,---,0.00,VWS V14.01,2014-09-18 09:38:00,
2014-09-18 05:43:00,53.7,48.7,30.06,NNW,335,1.0,4.0,83,0.00,,---,0.00,VWS V14.01,2014-09-18 09:43:00,
2014-09-18 05:48:00,53.5,48.5,30.07,NNW,335,1.0,4.0,83,0.00,,---,0.00,VWS V14.01,2014-09-18 09:48:00,
2014-09-18 05:53:00,53.4,48.7,30.07,North,4,1.0,4.0,84,0.00,,---,0.00,VWS V14.01,2014-09-18 09:53:00,
2014-09-18 05:58:00,53.3,48.9,30.07,NNE,15,5.0,5.0,85,0.00,,---,0.00,VWS V14.01,2014-09-18 09:58:00,
2014-09-18 06:03:00,53.2,48.8,30.07,NNW,343,0.0,2.0,85,0.00,,---,0.00,VWS V14.01,2014-09-18 10:03:00,
2014-09-18 06:08:00,53.1,48.7,30.08,NNW,342,1.0,3.0,85,0.00,,---,0.00,VWS V14.01,2014-09-18 10:08:00,
2014-09-18 06:13:00,53.1,48.7,30.08,NNE,21,3.0,5.0,85,0.00,,---,0.00,VWS V14.01,2014-09-18 10:13:00,
2014-09-18 06:19:00,53.1,49.0,30.08,North,11,3.0,5.0,86,0.00,,---,0.00,VWS V14.01,2014-09-18 10:19:00,
2014-09-18 06:24:00,53.0,48.9,30.08,North,4,3.0,5.0,86,0.00,,---,0.00,VWS V14.01,2014-09-18 10:24:00,
2014-09-18 06:29:00,52.9,48.8,30.08,NNE,21,3.0,5.0,86,0.00,,---,0.00,VWS V14.01,2014-09-18 10:29:00,
2014-09-18 06:35:00,52.9,49.1,30.08,North,4,2.0,5.0,87,0.00,,---,0.00,VWS V14.01,2014-09-18 10:35:00,
2014-09-18 06:40:00,52.9,49.5,30.08,NNE,12,2.0,5.0,88,0.00,,---,0.00,VWS V14.01,2014-09-18 10:40:00,
2014-09-18 06:45:00,52.8,49.3,30.08,NNE,23,2.0,5.0,88,0.00,,---,0.00,VWS V14.01,2014-09-18 10:45:00,
2014-09-18 06:50:00,52.8,49.7,30.08,North,359,5.0,5.0,89,0.00,,---,0.00,VWS V14.01,2014-09-18 10:50:00,
2014-09-18 06:53:00,52.8,49.7,30.08,North,8,3.0,7.0,89,0.00,,---,0.00,VWS V14.01,2014-09-18 10:53:00,
2014-09-18 06:58:00,52.8,49.7,30.08,North,11,4.0,7.0,89,0.00,,---,0.00,VWS V14.01,2014-09-18 10:58:00,
2014-09-18 07:03:00,52.7,49.5,30.09,NNE,21,2.0,5.0,89,0.00,,---,0.00,VWS V14.01,2014-09-18 11:03:00,
2014-09-18 07:08:00,52.7,49.8,30.09,NNE,12,3.0,5.0,90,0.00,,---,0.00,VWS V14.01,2014-09-18 11:08:00,
2014-09-18 07:13:00,52.7,49.8,30.09,NNE,20,3.0,7.0,90,0.00,,---,0.00,VWS V14.01,2014-09-18 11:13:00,
2014-09-18 07:18:00,52.7,49.8,30.09,North,4,4.0,7.0,90,0.00,,---,0.00,VWS V14.01,2014-09-18 11:18:00,
2014-09-18 07:23:00,52.6,50.0,30.10,North,354,3.0,8.0,91,0.00,,---,0.00,VWS V14.01,2014-09-18 11:23:00,
2014-09-18 07:28:00,52.6,50.0,30.10,North,9,8.0,10.0,91,0.00,,---,0.00,VWS V14.01,2014-09-18 11:28:00,
2014-09-18 07:33:00,52.7,50.2,30.10,North,11,3.0,7.0,91,0.00,,---,0.00,VWS V14.01,2014-09-18 11:33:00,
2014-09-18 07:39:00,52.7,50.2,30.10,NNE,16,5.0,8.0,91,0.00,,---,0.00,VWS V14.01,2014-09-18 11:39:00,
2014-09-18 07:44:00,52.7,50.2,30.10,NNE,18,5.0,8.0,91,0.00,,---,0.00,VWS V14.01,2014-09-18 11:44:00,
2014-09-18 07:49:00,52.8,50.5,30.11,ENE,57,3.0,8.0,92,0.00,,---,0.00,VWS V14.01,2014-09-18 11:49:00,
2014-09-18 07:54:00,53.0,50.7,30.11,North,4,3.0,8.0,92,0.00,,---,0.00,VWS V14.01,2014-09-18 11:54:00,
2014-09-18 07:59:00,53.2,50.7,30.11,NNE,28,6.0,8.0,91,0.00,,---,0.00,VWS V14.01,2014-09-18 11:59:00,
2014-09-18 08:04:00,53.3,50.7,30.11,NNE,31,6.0,9.0,91,0.00,,---,0.00,VWS V14.01,2014-09-18 12:04:00,
2014-09-18 08:09:00,53.5,50.9,30.11,North,4,4.0,9.0,91,0.00,,---,0.00,VWS V14.01,2014-09-18 12:09:00,
2014-09-18 08:14:00,53.7,51.1,30.11,NNE,19,7.0,9.0,91,0.00,,---,0.00,VWS V14.01,2014-09-18 12:14:00,
2014-09-18 08:19:00,54.0,51.4,30.11,NNE,32,4.0,9.0,91,0.00,,---,0.00,VWS V14.01,2014-09-18 12:19:00,
2014-09-18 08:24:00,54.3,51.7,30.10,NE,52,2.0,9.0,91,0.00,,---,0.00,VWS V14.01,2014-09-18 12:24:00,
2014-09-18 08:29:00,54.6,52.0,30.11,NNE,29,3.0,9.0,91,0.00,,---,0.00,VWS V14.01,2014-09-18 12:29:00,
2014-09-18 08:34:00,54.9,52.0,30.11,North,9,2.0,4.0,90,0.00,,---,0.00,VWS V14.01,2014-09-18 12:34:00,
2014-09-18 08:39:00,55.2,52.3,30.11,NNE,32,3.0,6.0,90,0.00,,---,0.00,VWS V14.01,2014-09-18 12:39:00,
2014-09-18 08:44:00,55.4,52.2,30.11,NNE,22,4.0,6.0,89,0.00,,---,0.00,VWS V14.01,2014-09-18 12:44:00,
2014-09-18 08:49:00,55.7,52.5,30.11,NE,37,3.0,7.0,89,0.00,,---,0.00,VWS V14.01,2014-09-18 12:49:00,
2014-09-18 08:54:00,55.9,52.7,30.11,NNE,24,8.0,9.0,89,0.00,,---,0.00,VWS V14.01,2014-09-18 12:54:00,
2014-09-18 08:59:00,56.2,52.7,30.12,NNE,27,5.0,6.0,88,0.00,,---,0.00,VWS V14.01,2014-09-18 12:59:00,
2014-09-18 09:04:00,56.4,52.9,30.12,ENE,60,8.0,10.0,88,0.00,,---,0.00,VWS V14.01,2014-09-18 13:04:00,
2014-09-18 09:09:00,56.7,53.2,30.12,NE,42,3.0,10.0,88,0.00,,---,0.00,VWS V14.01,2014-09-18 13:09:00,
2014-09-18 09:14:00,57.1,53.3,30.12,NNE,12,5.0,10.0,87,0.00,,---,0.00,VWS V14.01,2014-09-18 13:14:00,
2014-09-18 09:16:00,57.1,53.0,30.12,NE,38,7.0,10.0,86,0.00,,---,0.00,VWS V14.01,2014-09-18 13:16:00,
2014-09-18 09:21:00,57.4,53.2,30.12,NE,45,7.0,10.0,86,0.00,,---,0.00,VWS V14.01,2014-09-18 13:21:00,
2014-09-18 09:26:00,57.6,53.5,30.12,NE,37,3.0,10.0,86,0.00,,---,0.00,VWS V14.01,2014-09-18 13:26:00,
2014-09-18 09:31:00,58.0,53.5,30.12,NNE,27,6.0,8.0,85,0.00,,---,0.00,VWS V14.01,2014-09-18 13:31:00,
2014-09-18 09:36:00,58.4,53.9,30.12,NE,50,5.0,8.0,85,0.00,,---,0.00,VWS V14.01,2014-09-18 13:36:00,
2014-09-18 09:41:00,58.8,54.0,30.13,NE,48,3.0,8.0,84,0.00,,---,0.00,VWS V14.01,2014-09-18 13:41:00,
2014-09-18 09:46:00,59.1,54.3,30.13,NNE,32,3.0,8.0,84,0.00,,---,0.00,VWS V14.01,2014-09-18 13:46:00,
2014-09-18 09:51:00,59.5,54.3,30.13,ENE,60,3.0,8.0,83,0.00,,---,0.00,VWS V14.01,2014-09-18 13:51:00,
2014-09-18 09:56:00,59.8,54.3,30.13,NE,38,4.0,8.0,82,0.00,,---,0.00,VWS V14.01,2014-09-18 13:56:00,
2014-09-18 10:01:00,60.0,54.5,30.13,ENE,58,3.0,4.0,82,0.00,,---,0.00,VWS V14.01,2014-09-18 14:01:00,
2014-09-18 10:06:00,60.3,54.8,30.13,ENE,73,8.0,9.0,82,0.00,,---,0.00,VWS V14.01,2014-09-18 14:06:00,
2014-09-18 10:11:00,60.6,55.1,30.13,East,96,7.0,9.0,82,0.00,,---,0.00,VWS V14.01,2014-09-18 14:11:00,
2014-09-18 10:16:00,60.9,55.0,30.13,East,86,10.0,10.0,81,0.00,,---,0.00,VWS V14.01,2014-09-18 14:16:00,
2014-09-18 10:21:00,61.2,55.0,30.13,NE,41,5.0,13.0,80,0.00,,---,0.00,VWS V14.01,2014-09-18 14:21:00,
2014-09-18 10:26:00,61.4,55.9,30.13,ENE,67,3.0,13.0,82,0.00,,---,0.00,VWS V14.01,2014-09-18 14:26:00,
2014-09-18 10:31:00,61.5,55.6,30.14,East,92,11.0,11.0,81,0.00,,---,0.00,VWS V14.01,2014-09-18 14:31:00,
2014-09-18 10:36:00,62.0,56.1,30.14,ENE,75,5.0,13.0,81,0.00,,---,0.00,VWS V14.01,2014-09-18 14:36:00,
2014-09-18 10:41:00,61.7,55.5,30.14,ENE,75,9.0,15.0,80,0.00,,---,0.00,VWS V14.01,2014-09-18 14:41:00,
2014-09-18 10:46:00,61.0,55.1,30.13,East,83,12.0,17.0,81,0.00,,---,0.00,VWS V14.01,2014-09-18 14:46:00,
2014-09-18 10:51:00,60.6,55.4,30.14,East,95,15.0,18.0,83,0.00,,---,0.00,VWS V14.01,2014-09-18 14:51:00,
2014-09-18 10:56:00,60.2,55.3,30.14,East,80,10.0,18.0,84,0.00,,---,0.00,VWS V14.01,2014-09-18 14:56:00,
2014-09-18 11:01:00,60.0,55.2,30.14,East,91,13.0,15.0,84,0.00,,---,0.00,VWS V14.01,2014-09-18 15:01:00,
2014-09-18 11:07:00,60.2,55.3,30.14,East,93,14.0,15.0,84,0.00,,---,0.00,VWS V14.01,2014-09-18 15:07:00,
2014-09-18 11:12:00,60.4,55.2,30.14,East,97,15.0,15.0,83,0.00,,---,0.00,VWS V14.01,2014-09-18 15:12:00,
2014-09-18 11:17:00,60.4,55.2,30.14,East,95,15.0,16.0,83,0.00,,---,0.00,VWS V14.01,2014-09-18 15:17:00,
2014-09-18 11:22:00,60.2,54.7,30.14,East,96,18.0,18.0,82,0.00,,---,0.00,VWS V14.01,2014-09-18 15:22:00,
2014-09-18 11:27:00,60.1,54.9,30.14,East,100,14.0,18.0,83,0.00,,---,0.00,VWS V14.01,2014-09-18 15:27:00,
2014-09-18 11:32:00,60.0,54.8,30.14,East,92,14.0,16.0,83,0.00,,---,0.00,VWS V14.01,2014-09-18 15:32:00,
2014-09-18 11:37:00,60.0,54.8,30.15,East,93,13.0,16.0,83,0.00,,---,0.00,VWS V14.01,2014-09-18 15:37:00,
2014-09-18 11:42:00,60.1,54.9,30.15,East,91,13.0,16.0,83,0.00,,---,0.00,VWS V14.01,2014-09-18 15:42:00,
2014-09-18 11:47:00,60.4,55.2,30.15,East,89,12.0,16.0,83,0.00,,---,0.00,VWS V14.01,2014-09-18 15:47:00,
2014-09-18 11:48:00,60.4,54.9,30.15,East,84,12.0,16.0,82,0.00,,---,0.00,VWS V14.01,2014-09-18 15:48:00,
2014-09-18 11:53:00,60.6,54.8,30.15,East,96,13.0,16.0,81,0.00,,---,0.00,VWS V14.01,2014-09-18 15:53:00,
2014-09-18 11:58:00,60.4,54.5,30.15,East,100,13.0,16.0,81,0.00,,---,0.00,VWS V14.01,2014-09-18 15:58:00,
2014-09-18 12:03:00,60.3,54.8,30.15,East,93,14.0,14.0,82,0.00,,---,0.00,VWS V14.01,2014-09-18 16:03:00,
2014-09-18 12:08:00,60.3,54.8,30.15,ESE,104,15.0,16.0,82,0.00,,---,0.00,VWS V14.01,2014-09-18 16:08:00,
2014-09-18 12:13:00,60.1,54.6,30.16,East,99,13.0,16.0,82,0.00,,---,0.00,VWS V14.01,2014-09-18 16:13:00,
2014-09-18 12:18:00,60.2,54.7,30.16,East,92,11.0,16.0,82,0.00,,---,0.00,VWS V14.01,2014-09-18 16:18:00,
2014-09-18 12:23:00,60.7,54.8,30.16,ESE,104,13.0,16.0,81,0.00,,---,0.00,VWS V14.01,2014-09-18 16:23:00,
2014-09-18 12:28:00,60.7,54.8,30.16,East,92,13.0,16.0,81,0.00,,---,0.00,VWS V14.01,2014-09-18 16:28:00,
2014-09-18 12:33:00,60.9,54.7,30.16,East,90,11.0,13.0,80,0.00,,---,0.00,VWS V14.01,2014-09-18 16:33:00,
2014-09-18 12:38:00,61.3,55.1,30.16,ENE,73,10.0,13.0,80,0.00,,---,0.00,VWS V14.01,2014-09-18 16:38:00,
2014-09-18 12:43:00,61.7,55.1,30.16,East,95,10.0,13.0,79,0.00,,---,0.00,VWS V14.01,2014-09-18 16:43:00,
2014-09-18 12:49:00,61.8,55.2,30.16,East,95,12.0,13.0,79,0.00,,---,0.00,VWS V14.01,2014-09-18 16:49:00,
2014-09-18 12:54:00,61.6,55.0,30.16,East,89,13.0,14.0,79,0.00,,---,0.00,VWS V14.01,2014-09-18 16:54:00,
2014-09-18 12:59:00,61.4,54.5,30.16,East,96,13.0,15.0,78,0.00,,---,0.00,VWS V14.01,2014-09-18 16:59:00,
2014-09-18 13:04:00,61.3,55.1,30.16,East,100,11.0,13.0,80,0.00,,---,0.00,VWS V14.01,2014-09-18 17:04:00,
2014-09-18 13:09:00,61.3,54.7,30.16,East,96,11.0,14.0,79,0.00,,---,0.00,VWS V14.01,2014-09-18 17:09:00,
2014-09-18 13:14:00,61.3,55.1,30.16,East,85,8.0,14.0,80,0.00,,---,0.00,VWS V14.01,2014-09-18 17:14:00,
2014-09-18 13:19:00,61.6,55.0,30.16,East,95,12.0,14.0,79,0.00,,---,0.00,VWS V14.01,2014-09-18 17:19:00,
2014-09-18 13:24:00,61.6,55.7,30.16,East,93,11.0,14.0,81,0.00,,---,0.00,VWS V14.01,2014-09-18 17:24:00,
2014-09-18 13:29:00,61.7,55.5,30.16,East,94,12.0,14.0,80,0.00,,---,0.00,VWS V14.01,2014-09-18 17:29:00,
2014-09-18 13:34:00,61.6,54.7,30.16,ESE,105,10.0,14.0,78,0.00,,---,0.00,VWS V14.01,2014-09-18 17:34:00,
2014-09-18 13:39:00,61.8,54.9,30.16,East,98,6.0,14.0,78,0.00,,---,0.00,VWS V14.01,2014-09-18 17:39:00,
2014-09-18 13:44:00,62.6,55.3,30.16,ENE,65,2.0,15.0,77,0.00,,---,0.00,VWS V14.01,2014-09-18 17:44:00,
2014-09-18 13:49:00,63.6,54.8,30.16,NE,49,6.0,15.0,73,0.00,,---,0.00,VWS V14.01,2014-09-18 17:49:00,
2014-09-18 13:55:00,63.9,54.3,30.16,ENE,64,2.0,15.0,71,0.00,,---,0.00,VWS V14.01,2014-09-18 17:55:00,
2014-09-18 14:00:00,63.9,53.9,30.16,ENE,60,3.0,3.0,70,0.00,,---,0.00,VWS V14.01,2014-09-18 18:00:00,
2014-09-18 14:05:00,63.7,54.1,30.16,ENE,75,3.0,9.0,71,0.00,,---,0.00,VWS V14.01,2014-09-18 18:05:00,
2014-09-18 14:10:00,63.7,54.1,30.16,ENE,59,3.0,9.0,71,0.00,,---,0.00,VWS V14.01,2014-09-18 18:10:00,
2014-09-18 14:15:00,63.9,54.3,30.16,East,91,2.0,9.0,71,0.00,,---,0.00,VWS V14.01,2014-09-18 18:15:00,
2014-09-18 14:20:00,63.9,53.9,30.16,East,97,12.0,12.0,70,0.00,,---,0.00,VWS V14.01,2014-09-18 18:20:00,
2014-09-18 14:25:00,63.3,54.1,30.16,East,96,10.0,15.0,72,0.00,,---,0.00,VWS V14.01,2014-09-18 18:25:00,
2014-09-18 14:30:00,62.9,53.8,30.16,East,90,12.0,14.0,72,0.00,,---,0.00,VWS V14.01,2014-09-18 18:30:00,
2014-09-18 14:35:00,62.6,53.5,30.16,ESE,103,11.0,14.0,72,0.00,,---,0.00,VWS V14.01,2014-09-18 18:35:00,
2014-09-18 14:38:00,62.7,53.9,30.15,East,99,8.0,16.0,73,0.00,,---,0.00,VWS V14.01,2014-09-18 18:38:00,
2014-09-18 14:43:00,62.5,53.4,30.15,East,97,15.0,16.0,72,0.00,,---,0.00,VWS V14.01,2014-09-18 18:43:00,
2014-09-18 14:48:00,62.3,53.5,30.15,East,85,11.0,16.0,73,0.00,,---,0.00,VWS V14.01,2014-09-18 18:48:00,
2014-09-18 14:53:00,62.4,54.0,30.15,ESE,102,11.0,16.0,74,0.00,,---,0.00,VWS V14.01,2014-09-18 18:53:00,
2014-09-18 14:58:00,62.3,54.3,30.15,East,97,11.0,16.0,75,0.00,,---,0.00,VWS V14.01,2014-09-18 18:58:00,
2014-09-18 15:04:00,62.4,54.0,30.15,East,87,7.0,14.0,74,0.00,,---,0.00,VWS V14.01,2014-09-18 19:04:00,
2014-09-18 15:09:00,62.4,54.0,30.15,East,96,12.0,14.0,74,0.00,,---,0.00,VWS V14.01,2014-09-18 19:09:00,
2014-09-18 15:14:00,62.1,53.7,30.15,East,89,4.0,14.0,74,0.00,,---,0.00,VWS V14.01,2014-09-18 19:14:00,
2014-09-18 15:19:00,62.0,54.4,30.15,East,82,12.0,15.0,76,0.00,,---,0.00,VWS V14.01,2014-09-18 19:19:00,
2014-09-18 15:24:00,62.2,54.5,30.15,ENE,69,9.0,15.0,76,0.00,,---,0.00,VWS V14.01,2014-09-18 19:24:00,
2014-09-18 15:29:00,62.4,54.8,30.15,East,91,12.0,16.0,76,0.00,,---,0.00,VWS V14.01,2014-09-18 19:29:00,
2014-09-18 15:34:00,62.2,54.9,30.15,ENE,69,10.0,15.0,77,0.00,,---,0.00,VWS V14.01,2014-09-18 19:34:00,
2014-09-18 15:39:00,61.8,54.2,30.15,ENE,65,8.0,15.0,76,0.00,,---,0.00,VWS V14.01,2014-09-18 19:39:00,
2014-09-18 15:44:00,61.9,55.0,30.15,East,100,7.0,15.0,78,0.00,,---,0.00,VWS V14.01,2014-09-18 19:44:00,
2014-09-18 15:49:00,61.9,54.6,30.15,East,83,9.0,16.0,77,0.00,,---,0.00,VWS V14.01,2014-09-18 19:49:00,
2014-09-18 15:54:00,62.0,55.1,30.15,ENE,77,12.0,16.0,78,0.00,,---,0.00,VWS V14.01,2014-09-18 19:54:00,
2014-09-18 15:59:00,61.8,54.5,30.15,East,85,7.0,16.0,77,0.00,,---,0.00,VWS V14.01,2014-09-18 19:59:00,
2014-09-18 16:04:00,61.4,54.8,30.15,East,81,12.0,19.0,79,0.00,,---,0.00,VWS V14.01,2014-09-18 20:04:00,
2014-09-18 16:09:00,61.2,55.0,30.15,East,85,17.0,23.0,80,0.00,,---,0.00,VWS V14.01,2014-09-18 20:09:00,
2014-09-18 16:14:00,60.9,55.0,30.15,ENE,65,15.0,23.0,81,0.00,,---,0.00,VWS V14.01,2014-09-18 20:14:00,
2014-09-18 16:19:00,60.6,54.8,30.15,ENE,73,11.0,23.0,81,0.00,,---,0.00,VWS V14.01,2014-09-18 20:19:00,
2014-09-18 16:24:00,60.5,55.0,30.16,ENE,73,15.0,23.0,82,0.00,,---,0.00,VWS V14.01,2014-09-18 20:24:00,
2014-09-18 16:29:00,60.3,55.1,30.16,East,88,16.0,19.0,83,0.00,,---,0.00,VWS V14.01,2014-09-18 20:29:00,
2014-09-18 16:35:00,60.1,54.6,30.15,East,91,10.0,19.0,82,0.00,,---,0.00,VWS V14.01,2014-09-18 20:35:00,
2014-09-18 16:40:00,60.1,54.6,30.15,ENE,70,9.0,19.0,82,0.00,,---,0.00,VWS V14.01,2014-09-18 20:40:00,
2014-09-18 16:45:00,60.1,54.6,30.15,East,94,16.0,19.0,82,0.00,,---,0.00,VWS V14.01,2014-09-18 20:45:00,
2014-09-18 16:50:00,60.4,54.9,30.15,East,83,14.0,19.0,82,0.00,,---,0.00,VWS V14.01,2014-09-18 20:50:00,
2014-09-18 16:55:00,60.4,54.5,30.15,East,83,15.0,20.0,81,0.00,,---,0.00,VWS V14.01,2014-09-18 20:55:00,
2014-09-18 17:00:00,60.2,54.4,30.15,East,81,13.0,14.0,81,0.00,,---,0.00,VWS V14.01,2014-09-18 21:00:00,
2014-09-18 17:05:00,60.0,54.2,30.15,East,85,16.0,20.0,81,0.00,,---,0.00,VWS V14.01,2014-09-18 21:05:00,
2014-09-18 17:10:00,60.0,54.2,30.15,East,85,12.0,20.0,81,0.00,,---,0.00,VWS V14.01,2014-09-18 21:10:00,
2014-09-18 17:15:00,60.0,54.5,30.16,East,85,13.0,20.0,82,0.00,,---,0.00,VWS V14.01,2014-09-18 21:15:00,
2014-09-18 17:20:00,59.9,53.7,30.16,East,97,16.0,20.0,80,0.00,,---,0.00,VWS V14.01,2014-09-18 21:20:00,
2014-09-18 17:25:00,59.8,53.6,30.16,ENE,66,9.0,20.0,80,0.00,,---,0.00,VWS V14.01,2014-09-18 21:25:00,
2014-09-18 17:30:00,59.6,53.4,30.16,NE,51,5.0,15.0,80,0.00,,---,0.00,VWS V14.01,2014-09-18 21:30:00,
2014-09-18 17:35:00,59.3,53.5,30.16,East,92,12.0,17.0,81,0.00,,---,0.00,VWS V14.01,2014-09-18 21:35:00,
2014-09-18 17:36:00,59.2,53.4,30.16,ENE,72,10.0,17.0,81,0.00,,---,0.00,VWS V14.01,2014-09-18 21:36:00,
2014-09-18 17:41:00,59.0,53.2,30.16,ENE,69,9.0,17.0,81,0.00,,---,0.00,VWS V14.01,2014-09-18 21:41:00,
2014-09-18 17:46:00,58.9,53.1,30.16,ENE,75,10.0,17.0,81,0.00,,---,0.00,VWS V14.01,2014-09-18 21:46:00,
2014-09-18 17:51:00,58.9,53.1,30.16,ENE,73,9.0,17.0,81,0.00,,---,0.00,VWS V14.01,2014-09-18 21:51:00,
2014-09-18 17:56:00,59.0,53.2,30.16,East,84,7.0,17.0,81,0.00,,---,0.00,VWS V14.01,2014-09-18 21:56:00,
2014-09-18 18:01:00,59.0,52.8,30.16,ENE,73,10.0,13.0,80,0.00,,---,0.00,VWS V14.01,2014-09-18 22:01:00,
2014-09-18 18:06:00,59.0,52.8,30.16,East,89,9.0,14.0,80,0.00,,---,0.00,VWS V14.01,2014-09-18 22:06:00,
2014-09-18 18:11:00,58.9,52.8,30.16,East,79,15.0,15.0,80,0.00,,---,0.00,VWS V14.01,2014-09-18 22:11:00,
2014-09-18 18:16:00,58.9,52.4,30.16,NNE,26,8.0,15.0,79,0.00,,---,0.00,VWS V14.01,2014-09-18 22:16:00,
2014-09-18 18:21:00,59.0,52.8,30.16,East,83,10.0,15.0,80,0.00,,---,0.00,VWS V14.01,2014-09-18 22:21:00,
2014-09-18 18:27:00,58.9,52.8,30.16,ENE,70,11.0,15.0,80,0.00,,---,0.00,VWS V14.01,2014-09-18 22:27:00,
2014-09-18 18:32:00,58.8,52.3,30.17,NE,38,7.0,15.0,79,0.00,,---,0.00,VWS V14.01,2014-09-18 22:32:00,
2014-09-18 18:37:00,58.7,52.2,30.17,ENE,71,14.0,15.0,79,0.00,,---,0.00,VWS V14.01,2014-09-18 22:37:00,
2014-09-18 18:42:00,58.4,52.6,30.17,East,86,15.0,16.0,81,0.00,,---,0.00,VWS V14.01,2014-09-18 22:42:00,
2014-09-18 18:46:00,58.1,52.0,30.17,NE,45,9.0,17.0,80,0.00,,---,0.00,VWS V14.01,2014-09-18 22:46:00,
2014-09-18 18:51:00,57.9,51.8,30.17,ENE,71,8.0,17.0,80,0.00,,---,0.00,VWS V14.01,2014-09-18 22:51:00,
2014-09-18 18:56:00,57.7,51.6,30.17,ENE,65,9.0,17.0,80,0.00,,---,0.00,VWS V14.01,2014-09-18 22:56:00,
2014-09-18 19:01:00,57.6,51.5,30.17,ENE,70,10.0,15.0,80,0.00,,---,0.00,VWS V14.01,2014-09-18 23:01:00,
2014-09-18 19:06:00,57.6,51.5,30.17,ENE,57,9.0,15.0,80,0.00,,---,0.00,VWS V14.01,2014-09-18 23:06:00,
2014-09-18 19:11:00,57.5,51.7,30.17,ENE,73,10.0,15.0,81,0.00,,---,0.00,VWS V14.01,2014-09-18 23:11:00,
2014-09-18 19:16:00,57.4,51.6,30.17,ENE,67,5.0,15.0,81,0.00,,---,0.00,VWS V14.01,2014-09-18 23:16:00,
2014-09-18 19:21:00,57.3,51.5,30.17,East,97,7.0,15.0,81,0.00,,---,0.00,VWS V14.01,2014-09-18 23:21:00,
2014-09-18 19:26:00,57.2,51.4,30.17,ENE,76,4.0,15.0,81,0.00,,---,0.00,VWS V14.01,2014-09-18 23:26:00,
2014-09-18 19:31:00,57.1,51.7,30.17,East,85,5.0,10.0,82,0.00,,---,0.00,VWS V14.01,2014-09-18 23:31:00,
2014-09-18 19:36:00,56.9,51.5,30.17,ENE,71,9.0,10.0,82,0.00,,---,0.00,VWS V14.01,2014-09-18 23:36:00,
2014-09-18 19:38:00,56.9,51.5,30.17,ENE,71,5.0,10.0,82,0.00,,---,0.00,VWS V14.01,2014-09-18 23:38:00,
2014-09-18 19:43:00,56.9,51.1,30.17,ENE,66,8.0,11.0,81,0.00,,---,0.00,VWS V14.01,2014-09-18 23:43:00,
2014-09-18 19:48:00,56.8,51.0,30.17,ENE,75,10.0,11.0,81,0.00,,---,0.00,VWS V14.01,2014-09-18 23:48:00,
2014-09-18 19:53:00,56.6,51.2,30.17,ENE,68,4.0,11.0,82,0.00,,---,0.00,VWS V14.01,2014-09-18 23:53:00,
2014-09-18 19:58:00,56.5,51.1,30.18,ENE,63,8.0,14.0,82,0.00,,---,0.00,VWS V14.01,2014-09-18 23:58:00,
2014-09-18 20:03:00,56.4,51.0,30.17,East,81,12.0,13.0,82,0.00,,---,0.00,VWS V14.01,2014-09-19 00:03:00,
2014-09-18 20:08:00,56.2,50.8,30.18,ENE,75,12.0,14.0,82,0.00,,---,0.00,VWS V14.01,2014-09-19 00:08:00,
2014-09-18 20:13:00,56.0,50.6,30.18,ENE,76,10.0,15.0,82,0.00,,---,0.00,VWS V14.01,2014-09-19 00:13:00,
2014-09-18 20:19:00,55.8,50.4,30.18,East,89,12.0,15.0,82,0.00,,---,0.00,VWS V14.01,2014-09-19 00:19:00,
2014-09-18 20:24:00,55.7,50.3,30.18,ENE,77,9.0,15.0,82,0.00,,---,0.00,VWS V14.01,2014-09-19 00:24:00,
2014-09-18 20:29:00,55.7,50.3,30.19,East,89,6.0,15.0,82,0.00,,---,0.00,VWS V14.01,2014-09-19 00:29:00,
2014-09-18 20:34:00,55.7,50.3,30.19,East,79,8.0,14.0,82,0.00,,---,0.00,VWS V14.01,2014-09-19 00:34:00,
2014-09-18 20:39:00,55.6,50.2,30.19,ENE,61,8.0,14.0,82,0.00,,---,0.00,VWS V14.01,2014-09-19 00:39:00,
2014-09-18 20:44:00,55.5,50.1,30.19,ENE,77,7.0,15.0,82,0.00,,---,0.00,VWS V14.01,2014-09-19 00:44:00,
2014-09-18 20:49:00,55.4,49.7,30.20,ENE,74,3.0,15.0,81,0.00,,---,0.00,VWS V14.01,2014-09-19 00:49:00,
2014-09-18 20:54:00,55.4,49.7,30.20,East,89,10.0,16.0,81,0.00,,---,0.00,VWS V14.01,2014-09-19 00:54:00,
2014-09-18 20:59:00,55.4,49.7,30.20,ENE,77,11.0,17.0,81,0.00,,---,0.00,VWS V14.01,2014-09-19 00:59:00,
2014-09-18 21:04:00,55.4,49.7,30.20,East,83,13.0,15.0,81,0.00,,---,0.00,VWS V14.01,2014-09-19 01:04:00,
2014-09-18 21:09:00,55.3,49.6,30.20,East,93,8.0,15.0,81,0.00,,---,0.00,VWS V14.01,2014-09-19 01:09:00,
2014-09-18 21:14:00,55.3,49.6,30.21,ENE,71,11.0,16.0,81,0.00,,---,0.00,VWS V14.01,2014-09-19 01:14:00,
2014-09-18 21:19:00,55.3,49.6,30.21,NE,53,4.0,16.0,81,0.00,,---,0.00,VWS V14.01,2014-09-19 01:19:00,
2014-09-18 21:24:00,55.2,49.5,30.21,East,82,9.0,16.0,81,0.00,,---,0.00,VWS V14.01,2014-09-19 01:24:00,
2014-09-18 21:29:00,55.0,49.3,30.21,ENE,66,5.0,16.0,81,0.00,,---,0.00,VWS V14.01,2014-09-19 01:29:00,
2014-09-18 21:34:00,54.9,49.2,30.21,NE,56,11.0,12.0,81,0.00,,---,0.00,VWS V14.01,2014-09-19 01:34:00,
2014-09-18 21:39:00,54.8,49.1,30.21,ENE,60,11.0,14.0,81,0.00,,---,0.00,VWS V14.01,2014-09-19 01:39:00,
2014-09-18 21:44:00,54.8,49.1,30.22,ENE,77,10.0,16.0,81,0.00,,---,0.00,VWS V14.01,2014-09-19 01:44:00,
2014-09-18 21:49:00,54.7,49.0,30.22,ENE,78,5.0,16.0,81,0.00,,---,0.00,VWS V14.01,2014-09-19 01:49:00,
2014-09-18 21:54:00,54.7,49.0,30.22,East,90,10.0,16.0,81,0.00,,---,0.00,VWS V14.01,2014-09-19 01:54:00,
2014-09-18 21:59:00,54.5,48.8,30.22,ENE,69,6.0,8.0,81,0.00,,---,0.00,VWS V14.01,2014-09-19 01:59:00,
2014-09-18 22:04:00,54.5,48.8,30.22,ENE,69,4.0,10.0,81,0.00,,---,0.00,VWS V14.01,2014-09-19 02:04:00,
2014-09-18 22:10:00,54.4,48.7,30.22,East,80,7.0,10.0,81,0.00,,---,0.00,VWS V14.01,2014-09-19 02:10:00,
2014-09-18 22:15:00,54.3,48.6,30.22,East,91,9.0,14.0,81,0.00,,---,0.00,VWS V14.01,2014-09-19 02:15:00,
2014-09-18 22:20:00,54.3,48.9,30.22,ENE,59,3.0,14.0,82,0.00,,---,0.00,VWS V14.01,2014-09-19 02:20:00,
2014-09-18 22:25:00,54.3,48.6,30.22,ENE,76,5.0,14.0,81,0.00,,---,0.00,VWS V14.01,2014-09-19 02:25:00,
2014-09-18 22:30:00,54.2,48.5,30.22,ENE,73,8.0,12.0,81,0.00,,---,0.00,VWS V14.01,2014-09-19 02:30:00,